• In Germany
  • List of Countries
  • For 7 days
  • Water Temperature
  • Satellite Maps
  • Weather Map
  • Weather Widgets
  • user-avatar
    Login

    Hourly Weather Artashat

    Today, 26 September, Wednesday

    Time Temperature Precipitation Wind Pressure Humidity
    00:00 +14°C° 0 mm 1 mps 603 mmHg 47%
    01:00 +13°C° 0 mm 1 mps 603 mmHg 50%
    02:00 +13°C° 0 mm 1 mps 603 mmHg 52%
    03:00 +12°C° 0 mm 1 mps 603 mmHg 55%
    04:00 +12°C° 0 mm 1 mps 603 mmHg 57%
    05:00 +11°C° 0 mm 1 mps 602 mmHg 59%
    06:00 +11°C° 0 mm 1 mps 602 mmHg 61%
    07:00 +13°C° 0 mm 1 mps 603 mmHg 54%
    08:00 +15°C° 0 mm 2 mps 604 mmHg 47%
    09:00 +17°C° 0 mm 2 mps 605 mmHg 40%
    10:00 +18°C° 0 mm 2 mps 605 mmHg 37%
    11:00 +19°C° 0 mm 2 mps 606 mmHg 34%
    12:00 +20°C° 0 mm 2 mps 606 mmHg 30%
    13:00 +21°C° 0 mm 2 mps 606 mmHg 29%
    14:00 +21°C° 0 mm 2 mps 605 mmHg 28%
    15:00 +21°C° 0 mm 2 mps 605 mmHg 27%
    16:00 +20°C° 0 mm 2 mps 605 mmHg 30%
    17:00 +19°C° 0 mm 2 mps 605 mmHg 33%
    18:00 +18°C° 0 mm 2 mps 604 mmHg 36%
    19:00 +17°C° 0 mm 2 mps 605 mmHg 40%
    20:00 +16°C° 0 mm 2 mps 605 mmHg 44%
    21:00 +15°C° 0 mm 2 mps 605 mmHg 47%
    22:00 +14°C° 0 mm 2 mps 605 mmHg 50%
    23:00 +13°C° 0 mm 2 mps 605 mmHg 53%

    Tomorrow, 27 September, Thursday

    Time Temperature Precipitation Wind Pressure Humidity
    00:00 +13°C° 0 mm 2 mps 605 mmHg 56%
    01:00 +12°C° 0 mm 2 mps 605 mmHg 59%
    02:00 +12°C° 0 mm 2 mps 604 mmHg 62%
    03:00 +11°C° 0 mm 1 mps 604 mmHg 65%
    04:00 +11°C° 0 mm 1 mps 604 mmHg 67%
    05:00 +10°C° 0 mm 1 mps 604 mmHg 69%
    06:00 +10°C° 0 mm 1 mps 604 mmHg 71%
    07:00 +12°C° 0 mm 1 mps 605 mmHg 63%
    08:00 +14°C° 0 mm 2 mps 606 mmHg 55%
    09:00 +15°C° 0 mm 2 mps 607 mmHg 47%
    10:00 +16°C° 0 mm 2 mps 607 mmHg 44%
    11:00 +18°C° 0 mm 2 mps 608 mmHg 41%
    12:00 +19°C° 0 mm 2 mps 608 mmHg 38%
    13:00 +19°C° 0 mm 2 mps 608 mmHg 36%
    14:00 +20°C° 0 mm 2 mps 608 mmHg 35%
    15:00 +20°C° 0 mm 2 mps 608 mmHg 33%
    16:00 +19°C° 0.1 mm 2 mps 607 mmHg 37%
    17:00 +18°C° 0.1 mm 2 mps 607 mmHg 41%
    18:00 +16°C° 0.1 mm 2 mps 606 mmHg 45%
    19:00 +16°C° 0 mm 2 mps 606 mmHg 49%
    20:00 +15°C° 0 mm 1 mps 607 mmHg 53%
    21:00 +14°C° 0 mm 1 mps 607 mmHg 57%
    22:00 +13°C° 0 mm 1 mps 607 mmHg 59%
    23:00 +13°C° 0 mm 1 mps 606 mmHg 61%

    Day after tomorrow, 28 September, Friday

    Time Temperature Precipitation Wind Pressure Humidity
    00:00 +12°C° 0 mm 1 mps 606 mmHg 63%
    01:00 +12°C° 0 mm 1 mps 606 mmHg 64%
    02:00 +11°C° 0 mm 1 mps 606 mmHg 66%
    03:00 +11°C° 0 mm 1 mps 606 mmHg 67%
    04:00 +11°C° 0 mm 1 mps 605 mmHg 69%
    05:00 +10°C° 0 mm 1 mps 605 mmHg 70%
    06:00 +10°C° 0 mm 1 mps 605 mmHg 72%
    07:00 +12°C° 0 mm 1 mps 606 mmHg 64%
    08:00 +14°C° 0 mm 1 mps 607 mmHg 56%
    09:00 +16°C° 0 mm 1 mps 608 mmHg 48%
    10:00 +17°C° 0 mm 2 mps 608 mmHg 44%
    11:00 +18°C° 0 mm 2 mps 608 mmHg 40%
    12:00 +19°C° 0 mm 2 mps 608 mmHg 36%
    13:00 +20°C° 0 mm 3 mps 608 mmHg 34%
    14:00 +20°C° 0 mm 3 mps 608 mmHg 33%
    15:00 +21°C° 0 mm 3 mps 607 mmHg 31%
    16:00 +20°C° 0 mm 2 mps 607 mmHg 35%
    17:00 +18°C° 0 mm 2 mps 606 mmHg 39%
    18:00 +18°C° 0 mm 1 mps 606 mmHg 43%
    19:00 +16°C° 0 mm 1 mps 606 mmHg 47%
    20:00 +15°C° 0 mm 1 mps 606 mmHg 52%
    21:00 +15°C° 0 mm 1 mps 606 mmHg 56%
    22:00 +14°C° 0 mm 1 mps 605 mmHg 58%
    23:00 +13°C° 0 mm 1 mps 605 mmHg 60%

    29 September, Saturday

    Time Temperature Precipitation Wind Pressure Humidity
    00:00 +13°C° 0 mm 1 mps 605 mmHg 62%
    01:00 +12°C° 0 mm 1 mps 604 mmHg 62%
    02:00 +12°C° 0 mm 1 mps 604 mmHg 63%
    03:00 +10°C° 0 mm 0 mps 604 mmHg 63%
    04:00 +10°C° 0 mm 0 mps 604 mmHg 63%
    05:00 +9°C° 0 mm 0 mps 603 mmHg 64%
    06:00 +9°C° 0 mm 0 mps 603 mmHg 64%
    07:00 +12°C° 0 mm 1 mps 604 mmHg 55%
    08:00 +15°C° 0 mm 1 mps 605 mmHg 45%
    09:00 +18°C° 0 mm 1 mps 606 mmHg 36%
    10:00 +20°C° 0 mm 1 mps 606 mmHg 32%
    11:00 +21°C° 0 mm 1 mps 607 mmHg 29%
    12:00 +21°C° 0 mm 2 mps 607 mmHg 25%
    13:00 +23°C° 0 mm 2 mps 606 mmHg 23%
    14:00 +23°C° 0 mm 2 mps 606 mmHg 22%
    15:00 +24°C° 0 mm 2 mps 606 mmHg 21%
    16:00 +21°C° 0 mm 2 mps 605 mmHg 24%
    17:00 +20°C° 0 mm 1 mps 605 mmHg 27%
    18:00 +18°C° 0 mm 1 mps 604 mmHg 31%
    19:00 +18°C° 0 mm 1 mps 604 mmHg 33%
    20:00 +16°C° 0 mm 1 mps 605 mmHg 35%
    21:00 +15°C° 0 mm 1 mps 605 mmHg 37%
    22:00 +15°C° 0 mm 1 mps 605 mmHg 36%
    23:00 +14°C° 0 mm 1 mps 604 mmHg 36%

    30 September, Sunday

    Time Temperature Precipitation Wind Pressure Humidity
    00:00 +14°C° 0 mm 1 mps 604 mmHg 36%
    01:00 +13°C° 0 mm 1 mps 604 mmHg 36%
    02:00 +13°C° 0 mm 1 mps 604 mmHg 36%
    03:00 +12°C° 0 mm 1 mps 603 mmHg 35%
    04:00 +12°C° 0 mm 1 mps 603 mmHg 36%
    05:00 +12°C° 0 mm 1 mps 603 mmHg 36%
    06:00 +11°C° 0 mm 1 mps 603 mmHg 36%
    07:00 +14°C° 0 mm 1 mps 604 mmHg 32%
    08:00 +16°C° 0 mm 1 mps 606 mmHg 28%
    09:00 +20°C° 0 mm 1 mps 607 mmHg 24%
    10:00 +21°C° 0 mm 1 mps 607 mmHg 22%
    11:00 +22°C° 0 mm 1 mps 607 mmHg 20%
    12:00 +23°C° 0 mm 1 mps 607 mmHg 18%
    13:00 +23°C° 0 mm 2 mps 607 mmHg 18%
    14:00 +24°C° 0 mm 2 mps 606 mmHg 17%
    15:00 +24°C° 0 mm 2 mps 606 mmHg 17%
    16:00 +21°C° 0 mm 2 mps 606 mmHg 19%
    17:00 +19°C° 0 mm 2 mps 605 mmHg 22%
    18:00 +19°C° 0 mm 1 mps 605 mmHg 25%
    19:00 +18°C° 0 mm 1 mps 605 mmHg 26%
    20:00 +16°C° 0 mm 1 mps 605 mmHg 28%
    21:00 +15°C° 0 mm 1 mps 605 mmHg 29%
    22:00 +15°C° 0 mm 1 mps 605 mmHg 30%
    23:00 +14°C° 0 mm 1 mps 604 mmHg 31%

    1 October, Monday

    Time Temperature Precipitation Wind Pressure Humidity
    00:00 +14°C° 0 mm 1 mps 604 mmHg 32%
    01:00 +13°C° 0 mm 1 mps 604 mmHg 33%
    02:00 +13°C° 0 mm 1 mps 604 mmHg 34%
    03:00 +12°C° 0 mm 1 mps 604 mmHg 34%
    04:00 +12°C° 0 mm 1 mps 603 mmHg 35%
    05:00 +12°C° 0 mm 1 mps 603 mmHg 36%
    06:00 +11°C° 0 mm 1 mps 603 mmHg 36%
    07:00 +14°C° 0 mm 1 mps 604 mmHg 32%
    08:00 +16°C° 0 mm 1 mps 606 mmHg 27%
    09:00 +20°C° 0 mm 1 mps 607 mmHg 23%
    10:00 +21°C° 0 mm 1 mps 607 mmHg 22%
    11:00 +21°C° 0 mm 2 mps 607 mmHg 22%
    12:00 +23°C° 0 mm 2 mps 607 mmHg 21%
    13:00 +23°C° 0 mm 2 mps 607 mmHg 21%
    14:00 +23°C° 0 mm 2 mps 607 mmHg 21%
    15:00 +22°C° 0 mm 3 mps 606 mmHg 22%
    16:00 +21°C° 0 mm 2 mps 606 mmHg 25%
    17:00 +19°C° 0 mm 2 mps 606 mmHg 27%
    18:00 +18°C° 0 mm 2 mps 605 mmHg 30%
    19:00 +17°C° 0 mm 2 mps 605 mmHg 33%
    20:00 +18°C° 0 mm 1 mps 605 mmHg 35%
    21:00 +16°C° 0 mm 1 mps 605 mmHg 38%
    22:00 +16°C° 0 mm 1 mps 605 mmHg 39%
    23:00 +16°C° 0 mm 1 mps 605 mmHg 41%
    Show more